Hourly Weather Wagadugu

Today, 31 October, Saturday

Time Temperature Precipitation Wind Pressure Humidity
00:00 +28°C° 0 mm 2 mps 733 mmHg 27%
01:00 +28°C° 0 mm 1 mps 732 mmHg 28%
02:00 +27°C° 0 mm 1 mps 732 mmHg 29%
03:00 +27°C° 0 mm 1 mps 731 mmHg 30%
04:00 +26°C° 0 mm 1 mps 732 mmHg 30%
05:00 +26°C° 0 mm 1 mps 732 mmHg 30%
06:00 +26°C° 0 mm 2 mps 732 mmHg 30%
07:00 +28°C° 0 mm 2 mps 733 mmHg 27%
08:00 +31°C° 0 mm 2 mps 733 mmHg 23%
09:00 +35°C° 0 mm 2 mps 734 mmHg 20%
10:00 +36°C° 0 mm 3 mps 733 mmHg 18%
11:00 +38°C° 0 mm 3 mps 733 mmHg 16%
12:00 +40°C° 0 mm 4 mps 732 mmHg 14%
13:00 +41°C° 0 mm 4 mps 732 mmHg 14%
14:00 +40°C° 0 mm 3 mps 731 mmHg 14%
15:00 +40°C° 0 mm 3 mps 730 mmHg 13%
16:00 +38°C° 0 mm 3 mps 730 mmHg 15%
17:00 +36°C° 0 mm 3 mps 730 mmHg 17%
18:00 +34°C° 0 mm 2 mps 730 mmHg 19%
19:00 +34°C° 0 mm 2 mps 731 mmHg 19%
20:00 +32°C° 0 mm 2 mps 731 mmHg 19%
21:00 +31°C° 0 mm 2 mps 732 mmHg 19%
22:00 +30°C° 0 mm 2 mps 732 mmHg 20%
23:00 +29°C° 0 mm 2 mps 732 mmHg 21%

Tomorrow, 1 November, Sunday

Time Temperature Precipitation Wind Pressure Humidity
00:00 +29°C° 0 mm 2 mps 732 mmHg 21%
01:00 +28°C° 0 mm 2 mps 731 mmHg 22%
02:00 +27°C° 0 mm 2 mps 731 mmHg 23%
03:00 +27°C° 0 mm 2 mps 731 mmHg 23%
04:00 +27°C° 0 mm 2 mps 731 mmHg 23%
05:00 +26°C° 0 mm 2 mps 731 mmHg 23%
06:00 +26°C° 0 mm 2 mps 731 mmHg 23%
07:00 +28°C° 0 mm 3 mps 732 mmHg 21%
08:00 +31°C° 0 mm 3 mps 732 mmHg 19%
09:00 +34°C° 0 mm 4 mps 733 mmHg 17%
10:00 +36°C° 0 mm 4 mps 732 mmHg 16%
11:00 +39°C° 0 mm 5 mps 732 mmHg 14%
12:00 +40°C° 0 mm 5 mps 731 mmHg 12%
13:00 +41°C° 0 mm 4 mps 731 mmHg 12%
14:00 +41°C° 0 mm 4 mps 730 mmHg 12%
15:00 +40°C° 0 mm 3 mps 729 mmHg 11%
16:00 +38°C° 0 mm 3 mps 729 mmHg 13%
17:00 +36°C° 0 mm 2 mps 729 mmHg 15%
18:00 +34°C° 0 mm 2 mps 730 mmHg 17%
19:00 +32°C° 0 mm 2 mps 730 mmHg 18%
20:00 +31°C° 0 mm 2 mps 731 mmHg 18%
21:00 +30°C° 0 mm 2 mps 731 mmHg 19%
22:00 +29°C° 0 mm 2 mps 731 mmHg 20%
23:00 +28°C° 0 mm 2 mps 731 mmHg 20%

Day after tomorrow, 2 November, Monday

Time Temperature Precipitation Wind Pressure Humidity
00:00 +28°C° 0 mm 2 mps 731 mmHg 21%
01:00 +27°C° 0 mm 1 mps 731 mmHg 22%
02:00 +26°C° 0 mm 1 mps 731 mmHg 23%
03:00 +26°C° 0 mm 1 mps 731 mmHg 25%
04:00 +26°C° 0 mm 2 mps 731 mmHg 25%
05:00 +25°C° 0 mm 2 mps 731 mmHg 26%
06:00 +25°C° 0 mm 2 mps 731 mmHg 26%
07:00 +28°C° 0 mm 3 mps 732 mmHg 24%
08:00 +30°C° 0 mm 4 mps 733 mmHg 21%
09:00 +33°C° 0 mm 5 mps 733 mmHg 18%
10:00 +35°C° 0 mm 5 mps 733 mmHg 16%
11:00 +37°C° 0 mm 5 mps 733 mmHg 15%
12:00 +40°C° 0 mm 5 mps 732 mmHg 13%
13:00 +40°C° 0 mm 4 mps 731 mmHg 12%
14:00 +40°C° 0 mm 4 mps 731 mmHg 12%
15:00 +39°C° 0 mm 3 mps 730 mmHg 12%
16:00 +37°C° 0 mm 3 mps 730 mmHg 15%
17:00 +35°C° 0 mm 2 mps 730 mmHg 17%
18:00 +32°C° 0 mm 2 mps 730 mmHg 19%
19:00 +31°C° 0 mm 1 mps 731 mmHg 21%
20:00 +30°C° 0 mm 1 mps 731 mmHg 23%
21:00 +26°C° 0 mm 0 mps 732 mmHg 25%
22:00 +28°C° 0 mm 1 mps 732 mmHg 24%
23:00 +28°C° 0 mm 1 mps 732 mmHg 24%

3 November, Tuesday

Time Temperature Precipitation Wind Pressure Humidity
00:00 +28°C° 0 mm 2 mps 732 mmHg 23%
01:00 +28°C° 0 mm 2 mps 732 mmHg 23%
02:00 +27°C° 0 mm 2 mps 731 mmHg 23%
03:00 +27°C° 0 mm 2 mps 731 mmHg 22%
04:00 +27°C° 0 mm 2 mps 731 mmHg 23%
05:00 +26°C° 0 mm 3 mps 732 mmHg 24%
06:00 +26°C° 0 mm 3 mps 732 mmHg 25%
07:00 +28°C° 0 mm 3 mps 733 mmHg 23%
08:00 +31°C° 0 mm 3 mps 733 mmHg 21%
09:00 +34°C° 0 mm 4 mps 734 mmHg 19%
10:00 +36°C° 0 mm 4 mps 733 mmHg 17%
11:00 +37°C° 0 mm 4 mps 733 mmHg 16%
12:00 +40°C° 0 mm 4 mps 732 mmHg 14%
13:00 +40°C° 0 mm 4 mps 732 mmHg 14%
14:00 +39°C° 0 mm 3 mps 731 mmHg 13%
15:00 +40°C° 0 mm 3 mps 731 mmHg 13%
16:00 +37°C° 0 mm 2 mps 731 mmHg 15%
17:00 +35°C° 0 mm 2 mps 731 mmHg 18%
18:00 +32°C° 0 mm 1 mps 731 mmHg 20%
19:00 +31°C° 0 mm 1 mps 731 mmHg 21%
20:00 +30°C° 0 mm 1 mps 732 mmHg 22%
21:00 +29°C° 0 mm 1 mps 732 mmHg 23%
22:00 +29°C° 0 mm 2 mps 732 mmHg 23%
23:00 +29°C° 0 mm 2 mps 732 mmHg 23%

4 November, Wednesday

Time Temperature Precipitation Wind Pressure Humidity
00:00 +28°C° 0 mm 2 mps 732 mmHg 24%
01:00 +28°C° 0 mm 2 mps 732 mmHg 24%
02:00 +27°C° 0 mm 2 mps 731 mmHg 25%
03:00 +27°C° 0 mm 1 mps 731 mmHg 26%
04:00 +26°C° 0 mm 1 mps 731 mmHg 26%
05:00 +26°C° 0 mm 2 mps 732 mmHg 27%
06:00 +26°C° 0 mm 2 mps 732 mmHg 27%
07:00 +28°C° 0 mm 2 mps 732 mmHg 25%
08:00 +31°C° 0 mm 2 mps 733 mmHg 22%
09:00 +34°C° 0 mm 3 mps 733 mmHg 20%
10:00 +36°C° 0 mm 3 mps 733 mmHg 19%
11:00 +37°C° 0 mm 3 mps 732 mmHg 17%
12:00 +39°C° 0 mm 3 mps 732 mmHg 16%
13:00 +39°C° 0 mm 3 mps 731 mmHg 15%
14:00 +39°C° 0 mm 2 mps 731 mmHg 15%
15:00 +40°C° 0 mm 2 mps 730 mmHg 14%
16:00 +37°C° 0 mm 2 mps 730 mmHg 17%
17:00 +35°C° 0 mm 2 mps 730 mmHg 19%
18:00 +32°C° 0 mm 1 mps 730 mmHg 22%
19:00 +31°C° 0 mm 2 mps 730 mmHg 22%
20:00 +31°C° 0 mm 2 mps 731 mmHg 23%
21:00 +30°C° 0 mm 2 mps 732 mmHg 24%
22:00 +29°C° 0 mm 1 mps 732 mmHg 25%
23:00 +29°C° 0 mm 1 mps 732 mmHg 26%

5 November, Thursday

Time Temperature Precipitation Wind Pressure Humidity
00:00 +28°C° 0 mm 1 mps 731 mmHg 27%
01:00 +28°C° 0 mm 1 mps 731 mmHg 28%
02:00 +27°C° 0 mm 1 mps 731 mmHg 28%
03:00 +27°C° 0 mm 2 mps 731 mmHg 28%
04:00 +26°C° 0 mm 2 mps 731 mmHg 29%
05:00 +26°C° 0 mm 2 mps 731 mmHg 30%
06:00 +26°C° 0 mm 2 mps 731 mmHg 30%
07:00 +28°C° 0 mm 2 mps 732 mmHg 27%
08:00 +31°C° 0 mm 3 mps 732 mmHg 25%
09:00 +35°C° 0 mm 3 mps 733 mmHg 22%
10:00 +36°C° 0 mm 3 mps 733 mmHg 20%
11:00 +38°C° 0 mm 3 mps 732 mmHg 18%
12:00 +41°C° 0 mm 4 mps 732 mmHg 16%
13:00 +40°C° 0 mm 3 mps 731 mmHg 15%
14:00 +40°C° 0 mm 3 mps 730 mmHg 14%
15:00 +42°C° 0 mm 3 mps 730 mmHg 13%
16:00 +38°C° 0 mm 3 mps 730 mmHg 15%
17:00 +36°C° 0 mm 2 mps 730 mmHg 18%
18:00 +34°C° 0 mm 2 mps 730 mmHg 20%
19:00 +34°C° 0 mm 2 mps 730 mmHg 21%
20:00 +32°C° 0 mm 2 mps 731 mmHg 22%
21:00 +31°C° 0 mm 2 mps 731 mmHg 24%
22:00 +31°C° 0 mm 2 mps 731 mmHg 24%
23:00 +30°C° 0 mm 2 mps 731 mmHg 24%
Show more